EA6FG Weather Reports


time (UTC)temp
F
wind
direction
speed
knots
gust
knots
rain 1hr
in
rain 24hr
in
rain mn
in
humidity
%
barometer
mb
20260506072036 67 203 0.0 1.7 0.00 0.00 0.00 71 1010.5
20260506071113 67 203 0.0 1.7 0.00 0.00 0.00 73 1010.5
20260506062017 59 225 0.0 1.7 0.00 0.00 0.00 90 1010.8
20260506061115 57 0.0 0.0 0.00 0.00 0.00 91 1010.8
20260506060112 56 248 0.0 1.7 0.00 0.00 0.00 92 1010.8
20260506051057 53 0.0 1.7 0.00 0.00 0.00 92 1010.3
20260506050115 53 270 0.0 1.7 0.00 0.00 0.00 92 1010.0
20260506045051 53 248 0.9 3.5 0.00 0.00 0.00 94 1009.9
20260506044109 53 0.0 1.7 0.00 0.00 0.00 94 1009.8
20260506043045 53 270 0.0 1.7 0.00 0.00 0.00 94 1009.7
20260506042043 53 0.0 1.7 0.00 0.00 0.00 94 1009.6
20260506041059 53 0.0 0.0 0.00 0.00 0.00 94 1009.5
20260506040036 53 0.0 0.0 0.00 0.00 0.00 93 1009.5
20260506035033 53 0.0 1.7 0.00 0.00 0.00 93 1009.6
20260506034030 53 0.0 1.7 0.00 0.00 0.00 93 1009.5
20260506033047 53 0.0 0.0 0.00 0.00 0.00 92 1009.4
20260506032104 54 0.0 0.0 0.00 0.00 0.00 92 1009.4
20260506031022 54 270 0.0 1.7 0.00 0.00 0.00 92 1009.3
20260506030018 55 270 0.0 1.7 0.00 0.00 0.00 92 1009.2
20260506025015 55 0.0 0.0 0.00 0.00 0.00 91 1009.3
20260506024112 55 0.0 0.0 0.00 0.00 0.00 91 1009.3
20260506023131 55 259 0.0 1.7 0.00 0.00 0.00 92 1009.4
20260506022127 56 248 0.0 1.7 0.00 0.00 0.00 92 1009.3
20260506021103 56 0.0 0.0 0.00 0.00 0.00 92 1009.3
20260506020101 56 0.0 1.7 0.00 0.00 0.00 92 1009.3
20260506015057 56 0.0 0.0 0.00 0.00 0.00 92 1009.4
20260506014054 57 249 0.0 1.7 0.00 0.00 0.00 91 1009.4
20260506013051 57 0.0 0.0 0.00 0.00 0.00 91 1009.4
20260506012049 57 270 0.0 1.7 0.00 0.00 0.00 90 1009.4
20260506011046 58 0.0 0.0 0.00 0.00 0.00 90 1009.4
20260506010043 59 0.0 1.7 0.00 0.00 0.00 89 1009.5
20260506005039 60 0.0 1.7 0.00 0.00 0.00 89 1009.6
20260506004057 59 270 0.0 1.7 0.00 0.00 0.00 91 1009.7
20260506003054 59 270 0.0 1.7 0.00 0.00 0.00 91 1009.9
20260506002030 59 0.0 0.0 0.00 0.00 0.00 91 1010.0
20260506001027 60 0.0 1.7 0.00 0.00 0.00 89 1009.9
20260506000024 60 270 0.0 1.7 0.00 0.00 0.00 89 1010.0
20260505235022 60 270 0.0 1.7 0.00 0.00 0.00 89 1010.3
20260505234020 60 0.0 1.7 0.00 0.00 0.00 90 1010.2
20260505233016 61 270 0.0 1.7 0.00 0.00 0.00 91 1010.2
20260505232113 61 270 0.0 1.7 0.00 0.00 0.00 91 1010.0
20260505231110 60 270 0.9 1.7 0.00 0.00 0.00 92 1010.1
20260505230107 60 0.0 0.0 0.00 0.00 0.00 93 1010.0
20260505225124 60 203 0.0 1.7 0.00 0.00 0.00 93 1010.0
20260505224101 60 203 0.0 1.7 0.00 0.00 0.00 94 1009.9
20260505223058 60 203 0.9 3.5 0.00 0.00 0.00 95 1010.0
20260505222055 60 0.0 0.0 0.00 0.00 0.00 95 1010.1
20260505221052 61 0.0 0.0 0.00 0.00 0.00 95 1010.4
20260505220109 61 0.0 1.7 0.00 0.00 0.00 95 1010.5
20260505215046 61 203 0.0 1.7 0.00 0.00 0.00 95 1010.5
20260505214043 61 0.0 1.7 0.00 0.00 0.00 95 1010.5
20260505213040 61 0.0 1.7 0.00 0.00 0.00 95 1010.5
20260505212037 61 0.0 1.7 0.00 0.00 0.00 94 1010.7
20260505211034 62 203 0.0 1.7 0.00 0.00 0.00 94 1010.6
20260505210111 63 0.0 1.7 0.00 0.00 0.00 94 1010.6
20260505205028 63 0.0 0.0 0.00 0.00 0.00 93 1010.5
20260505204025 63 0.0 1.7 0.00 0.00 0.00 93 1010.5
20260505203042 64 203 0.9 1.7 0.00 0.00 0.00 92 1010.3
20260505202019 64 203 0.0 1.7 0.00 0.00 0.00 92 1010.3
20260505201016 64 203 0.0 1.7 0.00 0.00 0.00 92 1009.9
20260505200113 64 180 0.0 1.7 0.00 0.00 0.00 92 1009.8
20260505195110 64 180 0.0 1.7 0.00 0.00 0.00 92 1009.7
20260505194107 64 193 0.9 1.7 0.00 0.00 0.00 92 1009.6
20260505193105 64 199 1.7 3.5 0.00 0.00 0.00 91 1009.5
20260505192102 65 180 0.9 1.7 0.00 0.00 0.00 91 1009.3
20260505191058 65 180 0.9 1.7 0.00 0.00 0.00 90 1009.2
20260505190116 65 180 0.9 1.7 0.00 0.00 0.00 90 1009.1
20260505185052 65 180 0.9 3.5 0.00 0.00 0.00 89 1008.9
20260505184050 65 118 0.9 1.7 0.00 0.00 0.00 88 1008.9
20260505183047 66 180 0.0 1.7 0.00 0.00 0.00 87 1008.8
20260505182104 66 182 1.7 3.5 0.00 0.00 0.00 86 1008.8
20260505181040 67 171 1.7 3.5 0.00 0.00 0.00 84 1008.8
20260505180037 67 131 0.9 3.5 0.00 0.00 0.00 83 1008.7
20260505175055 67 175 0.9 3.5 0.00 0.00 0.00 83 1008.7
20260505174031 68 180 0.9 1.7 0.00 0.00 0.00 81 1008.6
20260505173028 68 154 0.9 3.5 0.00 0.00 0.00 79 1008.5
20260505172026 69 198 1.7 3.5 0.00 0.00 0.00 80 1008.7
20260505171023 69 147 2.6 6.1 0.00 0.00 0.00 80 1008.7
20260505170040 69 172 1.7 6.1 0.00 0.00 0.00 79 1008.6
20260505165037 68 193 3.5 6.1 0.00 0.00 0.00 79 1008.7
20260505164113 69 235 3.5 6.1 0.00 0.00 0.00 78 1008.8
20260505163110 69 205 3.5 6.1 0.00 0.00 0.00 78 1008.6
20260505162108 69 217 2.6 3.5 0.00 0.00 0.00 77 1008.8
20260505161105 69 186 2.6 6.1 0.00 0.00 0.00 77 1008.8
20260505160121 68 207 3.5 6.1 0.00 0.00 0.00 78 1008.7
20260505153052 69 223 2.6 6.1 0.00 0.00 0.00 76 1009.0
20260505152049 68 202 3.5 7.8 0.00 0.00 0.00 76 1009.0
20260505151046 69 225 3.5 9.6 0.00 0.00 0.00 77 1009.0
20260505130108 70 210 4.3 6.1 0.00 0.00 0.00 70 1009.7
20260505124101 71 209 3.5 7.8 0.00 0.00 0.00 71 1009.9
20260505123058 70 215 3.5 6.1 0.00 0.00 0.00 72 1010.1
20260505122116 72 215 2.6 6.1 0.00 0.00 0.00 69 1010.1
20260505121053 69 231 3.5 9.6 0.00 0.00 0.00 73 1010.1
20260505120049 70 217 3.5 7.8 0.00 0.00 0.00 69 1010.1
20260505115046 70 229 3.5 6.1 0.00 0.00 0.00 69 1010.2
20260505114043 71 208 3.5 7.8 0.00 0.00 0.00 69 1010.2
20260505113101 70 189 3.5 9.6 0.00 0.00 0.00 71 1010.3
20260505112038 71 185 3.5 7.0 0.00 0.00 0.00 71 1010.5
20260505111035 70 202 4.3 7.0 0.00 0.00 0.00 70 1010.5
20260505102020 71 201 3.5 7.0 0.00 0.00 0.00 70 1010.6
20260505101017 70 183 3.5 7.8 0.00 0.00 0.00 71 1010.6
20260505100114 70 231 3.5 7.0 0.00 0.00 0.00 71 1010.6
20260505095132 69 150 2.6 5.2 0.00 0.00 0.00 72 1010.6
20260505094148 70 223 3.5 7.8 0.00 0.00 0.00 71 1010.6
20260505093126 69 159 3.5 6.1 0.00 0.00 0.00 71 1010.7
20260505092123 69 155 0.9 6.1 0.00 0.00 0.00 72 1010.6
20260505091059 69 165 2.6 6.1 0.00 0.00 0.00 72 1010.6
20260505090056 69 175 2.6 5.2 0.00 0.00 0.00 74 1010.6
20260505085053 67 203 1.7 3.5 0.00 0.00 0.00 77 1010.6
20260505084050 68 196 1.7 6.1 0.00 0.00 0.00 76 1010.7
20260505083047 68 160 0.9 3.5 0.00 0.00 0.00 77 1010.6
20260505082105 66 209 1.7 5.2 0.00 0.00 0.00 82 1010.7
20260505081041 66 203 0.9 1.7 0.00 0.00 0.00 85 1010.7